Weather History for Barnwell, SC

Change the Weather History Date:

Sunday, May 5, 2013

  Actual Average (KOGB) Record (KOGB)
Temperature  
Mean Temperature 65 °F 68 °F  
Max Temperature 73 °F 81 °F 94 °F (2012)
Min Temperature 57 °F 56 °F 41 °F (1957)
Degree Days  
Heating Degree Days 0 1  
Month to date heating degree days 5  
Since 1 July heating degree days 2322  
Cooling Degree Days 0 4  
Month to date cooling degree days 20  
Year to date cooling degree days 105  
Growing Degree Days 15 (Base 50)    
Moisture  
Dew Point 60 °F    
Average Humidity 89    
Maximum Humidity 100    
Minimum Humidity 60    
Precipitation  
Precipitation 0.75 in 0.08 in 1.24 in (2013)
Month to date precipitation 0.39  
Year to date precipitation 14.79  
Sea Level Pressure  
Sea Level Pressure 29.82 in    
Wind  
Wind Speed 11 mph (ESE)    
Max Wind Speed 18 mph    
Max Gust Speed 30 mph    
Visibility 8 miles    
Events Fog , Rain , Thunderstorm    
T = Trace of Precipitation, MM = Missing Value Source: NWS Daily Summary

Daily Weather History Graph

Daily Weather History Graph

Search for Another Location

Airport:

Trip Planner

Search our weather history database for the weather conditions in past years. The results will help you decide how hot, cold, wet, or windy it might be!

Date:

Astronomy

May. 05, 2013 Rise Set
Actual Time 6:33 AM EDT 8:11 PM EDT
Civil Twilight 6:06 AM EDT 8:38 PM EDT
Nautical Twilight 5:34 AM EDT 9:10 PM EDT
Astronomical Twilight 5:01 AM EDT 9:44 PM EDT
Moon 3:50 AM EDT (5/5) 4:20 PM EDT (5/5)
Length of Visible Light 14h 31m
Length of Day
13h 37m
Waning Crescent, 18% of the Moon is Illuminated
May 5
Waning Crescent
May 9
New
May 18
First Quarter
May 25
Full
May 31
Last Quarter

Hourly Weather History & Observations

Time (EDT) Temp. Dew Point Humidity Pressure Visibility Wind Dir Wind Speed Gust Speed Precip Events Conditions
12:15 AM 60.8 °F 57.2 °F 88% 29.89 in 10.0 mi East 15.0 mph 19.6 mph N/A   Overcast
12:35 AM 60.8 °F 57.2 °F 88% 29.88 in 10.0 mi East 13.8 mph 24.2 mph N/A   Overcast
12:55 AM 60.8 °F 57.2 °F 88% 29.88 in 10.0 mi East 15.0 mph 23.0 mph N/A   Overcast
1:15 AM 60.8 °F 57.2 °F 88% 29.87 in 10.0 mi East 17.3 mph 21.9 mph N/A   Overcast
1:35 AM 60.8 °F 57.2 °F 88% 29.87 in 10.0 mi East 15.0 mph 19.6 mph N/A   Overcast
1:55 AM 60.8 °F 57.2 °F 88% 29.86 in 10.0 mi East 12.7 mph 20.7 mph N/A   Overcast
2:15 AM 60.8 °F 57.2 °F 88% 29.86 in 10.0 mi East 9.2 mph 18.4 mph N/A   Overcast
2:35 AM 60.8 °F 57.2 °F 88% 29.85 in 7.0 mi East 10.4 mph 17.3 mph 0.01 in Rain Light Rain
2:55 AM 60.8 °F 59.0 °F 94% 29.84 in 9.0 mi East 13.8 mph 19.6 mph 0.01 in Rain Light Rain
3:15 AM 60.8 °F 57.2 °F 88% 29.83 in 5.0 mi East 16.1 mph 21.9 mph N/A   Overcast
3:35 AM 60.8 °F 59.0 °F 94% 29.82 in 5.0 mi East 13.8 mph 19.6 mph N/A   Light Drizzle
3:55 AM 60.8 °F 59.0 °F 94% 29.82 in 10.0 mi East 12.7 mph 17.3 mph N/A   Overcast
4:15 AM 60.8 °F 59.0 °F 94% 29.81 in 10.0 mi East 10.4 mph 18.4 mph N/A   Overcast
4:35 AM 60.8 °F 59.0 °F 94% 29.82 in 10.0 mi East 12.7 mph 19.6 mph N/A   Overcast
4:55 AM 60.8 °F 57.2 °F 88% 29.81 in 9.0 mi East 11.5 mph 17.3 mph N/A Rain Light Rain
5:15 AM 60.8 °F 59.0 °F 94% 29.81 in 10.0 mi East 11.5 mph 19.6 mph N/A   Overcast
5:35 AM 60.8 °F 59.0 °F 94% 29.81 in 10.0 mi East 12.7 mph 17.3 mph N/A   Overcast
5:55 AM 60.8 °F 59.0 °F 94% 29.82 in 8.0 mi East 13.8 mph 21.9 mph N/A Rain Light Rain
6:15 AM 60.8 °F 59.0 °F 94% 29.81 in 5.0 mi East 15.0 mph 19.6 mph 0.02 in   Light Drizzle
6:35 AM 60.8 °F 57.2 °F 88% 29.80 in 6.0 mi East 11.5 mph 17.3 mph 0.03 in   Light Drizzle
6:55 AM 59.0 °F 57.2 °F 94% 29.80 in 10.0 mi East 12.7 mph 21.9 mph 0.03 in   Overcast
7:15 AM 59.0 °F 57.2 °F 94% 29.80 in 10.0 mi East 16.1 mph 20.7 mph N/A   Overcast
7:35 AM 60.8 °F 57.2 °F 88% 29.80 in 5.0 mi ESE 18.4 mph 27.6 mph N/A   Light Drizzle
7:55 AM 60.8 °F 59.0 °F 94% 29.80 in 10.0 mi East 12.7 mph 26.5 mph N/A   Overcast
8:15 AM 60.8 °F 59.0 °F 94% 29.79 in 9.0 mi East 16.1 mph 26.5 mph N/A   Overcast
8:35 AM 60.8 °F 59.0 °F 94% 29.78 in 10.0 mi East 17.3 mph 25.3 mph N/A   Overcast
8:55 AM 60.8 °F 59.0 °F 94% 29.80 in 10.0 mi ESE 12.7 mph - N/A   Overcast
9:15 AM 62.6 °F 60.8 °F 94% 29.78 in 10.0 mi East 17.3 mph 26.5 mph N/A   Overcast
9:35 AM 62.6 °F 60.8 °F 94% 29.80 in 10.0 mi East 13.8 mph 24.2 mph N/A   Overcast
9:55 AM 62.6 °F 60.8 °F 94% 29.80 in 10.0 mi East 11.5 mph 21.9 mph N/A   Overcast
10:15 AM 62.6 °F 60.8 °F 94% 29.80 in 1.5 mi ESE 10.4 mph 19.6 mph 0.07 in Rain Rain
10:35 AM 62.6 °F 60.8 °F 94% 29.81 in 1.2 mi SE 9.2 mph - 0.19 in Rain Rain
10:55 AM 62.6 °F 62.6 °F 100% 29.83 in 1.0 mi South 5.8 mph - 0.37 in Rain Heavy Rain
11:15 AM 62.6 °F 62.6 °F 100% 29.82 in 1.5 mi Calm Calm - 0.10 in Rain Heavy Rain
11:35 AM 64.4 °F 62.6 °F 94% 29.82 in 1.5 mi ESE 12.7 mph - 0.21 in Rain Heavy Rain
11:55 AM 64.4 °F 64.4 °F 100% 29.82 in 3.0 mi ESE 17.3 mph 29.9 mph 0.23 in   Overcast
12:15 PM 66.2 °F 64.4 °F 94% 29.81 in 8.0 mi ESE 17.3 mph 28.8 mph N/A   Light Drizzle
12:35 PM 66.2 °F 64.4 °F 94% 29.81 in 3.0 mi ESE 15.0 mph 21.9 mph 0.01 in   Mostly Cloudy
12:55 PM 66.2 °F 64.4 °F 94% 29.81 in 3.0 mi SSE 10.4 mph - 0.02 in Rain Rain
1:15 PM 66.2 °F 64.4 °F 94% 29.81 in 9.0 mi SE 18.4 mph 24.2 mph 0.01 in Rain Light Rain
1:35 PM 66.2 °F 64.4 °F 94% 29.81 in 3.0 mi SSE 9.2 mph - 0.01 in   Overcast
1:55 PM 69.8 °F 66.2 °F 88% 29.81 in 10.0 mi SE 11.5 mph 16.1 mph 0.01 in Thunderstorm Mostly Cloudy
2:15 PM 66.2 °F 64.4 °F 94% 29.81 in 3.0 mi South 5.8 mph - 0.01 in   Light Drizzle
2:35 PM 66.2 °F 64.4 °F 94% 29.81 in 1.8 mi SSW 3.5 mph - 0.05 in   Light Drizzle
2:55 PM 66.2 °F 64.4 °F 94% 29.81 in 1.2 mi Calm Calm - 0.08 in   Drizzle
3:15 PM 66.2 °F 64.4 °F 94% 29.81 in 5.0 mi Calm Calm - N/A   Overcast
3:35 PM 66.2 °F 64.4 °F 94% 29.81 in 10.0 mi SW 4.6 mph - N/A   Light Drizzle
3:55 PM 66.2 °F 64.4 °F 94% 29.81 in 10.0 mi WSW 8.1 mph - N/A   Overcast
4:15 PM 68.0 °F 64.4 °F 88% 29.80 in 10.0 mi SW 4.6 mph - N/A   Overcast
4:35 PM 69.8 °F 64.4 °F 83% 29.80 in 10.0 mi West 4.6 mph - N/A   Overcast
4:55 PM 69.8 °F 64.4 °F 83% 29.79 in 10.0 mi WSW 9.2 mph - N/A   Mostly Cloudy
5:15 PM 71.6 °F 60.8 °F 69% 29.79 in 10.0 mi SW 5.8 mph - N/A   Scattered Clouds
5:35 PM 71.6 °F 62.6 °F 73% 29.79 in 10.0 mi SW 5.8 mph - N/A   Mostly Cloudy
5:55 PM 73.4 °F 59.0 °F 61% 29.79 in 10.0 mi SSW 5.8 mph - N/A   Scattered Clouds
6:15 PM 71.6 °F 57.2 °F 60% 29.79 in 10.0 mi SSW 4.6 mph - N/A   Clear
6:35 PM 71.6 °F 57.2 °F 60% 29.79 in 10.0 mi SSW 4.6 mph - N/A   Clear
6:55 PM 71.6 °F 57.2 °F 60% 29.79 in 10.0 mi SW 4.6 mph - N/A   Clear
7:15 PM 71.6 °F 57.2 °F 60% 29.79 in 10.0 mi Calm Calm - N/A   Clear
7:35 PM 69.8 °F 57.2 °F 64% 29.79 in 10.0 mi Calm Calm - N/A   Clear
7:55 PM 69.8 °F 57.2 °F 64% 29.80 in 10.0 mi Calm Calm - N/A   Clear
8:15 PM 64.4 °F 57.2 °F 77% 29.81 in 10.0 mi Calm Calm - N/A   Clear
8:35 PM 62.6 °F 57.2 °F 82% 29.81 in 10.0 mi Calm Calm - N/A   Clear
8:55 PM 60.8 °F 57.2 °F 88% 29.82 in 10.0 mi Calm Calm - N/A   Clear
9:15 PM 59.0 °F 57.2 °F 94% 29.82 in 10.0 mi Calm Calm - N/A   Clear
9:35 PM 57.2 °F 57.2 °F 100% 29.82 in 10.0 mi Calm Calm - N/A   Clear
9:55 PM 59.0 °F 57.2 °F 94% 29.83 in 10.0 mi Calm Calm - N/A   Clear
10:15 PM 57.2 °F 57.2 °F 100% 29.83 in 10.0 mi Calm Calm - N/A   Scattered Clouds
10:55 PM 62.6 °F 62.6 °F 100% 29.84 in 0.2 mi Calm Calm - N/A   Light Drizzle
11:15 PM 62.6 °F 62.6 °F 100% 29.84 in 0.2 mi ESE 5.8 mph - N/A Fog Fog
11:35 PM 62.6 °F 62.6 °F 100% 29.85 in 0.5 mi SE 3.5 mph - N/A Fog Fog
11:55 PM 62.6 °F 62.6 °F 100% 29.85 in 3.0 mi SE 5.8 mph - N/A   Overcast